User: anonymous   Login
Location: Montauk Point State Park
(41.0718°N, 71.8593°W)
Time: 17:15:26
(UTC-04:00)
Language:

Cosmos 1844 - Orbit

View from above orbital plane
View from above orbital plane
View from above satellite
View from above satellite

Ground track
Ground track

The orbit data is extracted from the following two-line orbital elements,

1 17973U 87041A   14295.21174528 -.00000274  00000-0 -11822-3 0  8663
2 17973 070.8969 155.6162 0029366 142.7095 355.5299 14.13945379416171
Epoch (UTC): 22 October 2014 05:04:54
Eccentricity: 0.0029366
inclination: 70.8969°
perigee height: 824 km
apogee height: 867 km
right ascension of ascending node: 155.6162°
argument of perigee: 142.7095°
revolutions per day: 14.13945379
mean anomaly at epoch: 355.5299°
orbit number at epoch: 41617

The dashed part of the orbit path shows where the satellite is in the earth's shadow,  

DLR